Location: Rotheul
(50.2849°N, 11.2349°E)
Time: 22:01:37
(UTC+01:00)

Envisat - Pass Details

Date: 27 October 2019
Orbit: 764 x 766 km, 98.1° (Epoch: 19 November)

Event Time Altitude Azimuth Distance (km) Brightness Sun altitude
Rises 06:11:42 0° 24° (NNE) 3,244 6.4 -7.7°
Reaches altitude 10° 06:14:28 10° 38° (NE) 2,312 5.9 -7.3°
Maximum altitude 06:18:32 24° 91° (E) 1,569 5.8 -6.7°
Drops below altitude 10° 06:22:33 10° 144° (SE) 2,297 6.3 -6.0°
Sets 06:25:17 0° 159° (SSE) 3,218 6.8 -5.6°
